Location: Babice
(50.3480°N, 22.9363°E)
Time: 12:16:58
(UTC+00:00)

Cosmos 2242 Rocket - Pass Details

Date: 14 July 2020
Orbit: 618 x 651 km, 82.5° (Epoch: 07 August)

Event Time Altitude Azimuth Distance (km) Brightness Sun altitude
Rises 00:02:36 0° 344° (NNW) 2,982 7.9 -15.4°
Reaches altitude 10° 00:04:58 10° 337° (NNW) 2,063 6.9 -15.3°
Maximum altitude 00:09:15 41° 268° (W) 946 4.3 -15.0°
Enters shadow 00:11:24 25° 215° (SW) 1,315 4.6 -14.9°
